Year,Month,Day,Hour,Minute,Value (Times are PST for temperature in C)
2009,10,16,11,30,14.30
2009,10,16,11,31,14.30
2009,10,16,11,32,14.30
2009,10,16,11,33,14.30
2009,10,16,11,34,14.40
2009,10,16,11,35,14.40
2009,10,16,11,36,14.40
2009,10,16,11,37,14.40
2009,10,16,11,38,14.40
2009,10,16,11,39,14.40
2009,10,16,11,40,14.40
2009,10,16,11,41,14.40
2009,10,16,11,42,14.40
2009,10,16,11,43,14.40
2009,10,16,11,44,14.40
2009,10,16,11,45,14.40
2009,10,16,11,46,14.40
2009,10,16,11,47,14.40
2009,10,16,11,48,14.40
2009,10,16,11,49,14.40
2009,10,16,11,50,14.40
2009,10,16,11,51,14.40
2009,10,16,11,52,14.40
2009,10,16,11,53,14.40
2009,10,16,11,54,14.40
2009,10,16,11,55,14.40
2009,10,16,11,56,14.40
2009,10,16,11,57,14.40
2009,10,16,11,58,14.40
2009,10,16,11,59,14.40
2009,10,16,12,00,14.40
2009,10,16,12,01,14.40
2009,10,16,12,02,14.40
2009,10,16,12,18,14.20
2009,10,16,12,19,14.20
2009,10,16,12,20,14.30
2009,10,16,12,21,14.30
2009,10,16,12,22,14.30
2009,10,16,12,23,14.30
2009,10,16,12,24,14.30
2009,10,16,12,25,14.30
2009,10,16,12,26,14.30
2009,10,16,12,27,14.30
2009,10,16,12,28,14.30
2009,10,16,12,29,14.30
2009,10,16,12,30,14.30
2009,10,16,12,31,14.30
2009,10,16,12,32,14.30
2009,10,16,12,33,14.30
2009,10,16,12,34,14.30
2009,10,16,12,35,14.30
2009,10,16,12,36,14.30
2009,10,16,12,37,14.30
2009,10,16,12,38,14.30
2009,10,16,12,39,14.30
2009,10,16,12,40,14.40
2009,10,16,12,41,14.40
2009,10,16,12,42,14.40
2009,10,16,12,43,14.40
2009,10,16,12,44,14.40
2009,10,16,12,45,14.40
2009,10,16,12,46,14.40
2009,10,16,12,47,14.40
2009,10,16,12,48,14.50
2009,10,16,12,49,14.50
2009,10,16,12,50,14.50
2009,10,16,12,51,14.50
2009,10,16,12,52,14.50
2009,10,16,12,53,14.60
2009,10,16,12,54,14.60
2009,10,16,12,55,14.60
2009,10,16,12,56,14.60
2009,10,16,12,57,14.60
2009,10,16,12,58,14.60
2009,10,16,12,59,14.60
2009,10,16,13,00,14.60
2009,10,16,13,01,14.60
2009,10,16,13,02,14.60
2009,10,16,13,03,14.70
2009,10,16,13,04,14.70
2009,10,16,13,05,14.70
2009,10,16,13,06,14.70
2009,10,16,13,07,14.80
2009,10,16,13,08,14.80
2009,10,16,13,09,14.80
2009,10,16,13,10,14.80
2009,10,16,13,11,14.80
2009,10,16,13,12,14.80
2009,10,16,13,13,14.80
2009,10,16,13,14,14.80
2009,10,16,13,15,14.80
2009,10,16,13,16,14.80
2009,10,16,13,17,14.80
2009,10,16,13,18,14.80
2009,10,16,13,19,14.80
2009,10,16,13,20,14.80
2009,10,16,13,21,14.80
2009,10,16,13,22,14.80
2009,10,16,13,23,14.90
2009,10,16,13,24,14.90
2009,10,16,13,25,14.90
2009,10,16,13,26,15.00
2009,10,16,13,27,15.00
2009,10,16,13,28,15.00
2009,10,16,13,29,15.00
2009,10,16,13,30,15.00
2009,10,16,13,31,15.00
2009,10,16,13,32,15.00
2009,10,16,13,33,15.00
2009,10,16,13,34,15.00
2009,10,16,13,35,15.00
2009,10,16,13,36,15.00
2009,10,16,13,37,15.00
2009,10,16,13,38,15.00
2009,10,16,13,39,15.00
2009,10,16,13,40,15.00
2009,10,16,13,41,15.00
2009,10,16,13,42,15.00
2009,10,16,13,43,15.00
2009,10,16,13,44,15.00
2009,10,16,13,45,15.00
2009,10,16,13,46,15.00
2009,10,16,13,47,15.00
2009,10,16,13,48,15.00
2009,10,16,13,49,15.00
2009,10,16,13,50,15.00
2009,10,16,13,51,15.00
2009,10,16,13,52,15.00
2009,10,16,13,53,15.00
2009,10,16,13,54,15.00
2009,10,16,13,55,15.00
2009,10,16,13,56,15.00
2009,10,16,13,57,15.00
2009,10,16,13,58,15.00
2009,10,16,13,59,15.00
2009,10,16,14,00,15.00
2009,10,16,14,01,15.00
2009,10,16,14,02,15.00
2009,10,16,14,03,15.00
2009,10,16,14,04,15.00
2009,10,16,14,05,15.00
2009,10,16,14,06,15.00
2009,10,16,14,07,15.00
2009,10,16,14,08,15.00
2009,10,16,14,09,15.00
2009,10,16,14,10,15.00
2009,10,16,14,11,15.00
2009,10,16,14,12,15.10
2009,10,16,14,13,15.10
2009,10,16,14,14,15.20
2009,10,16,14,15,15.20
2009,10,16,14,16,15.20
2009,10,16,14,17,15.20
2009,10,16,14,18,15.20
2009,10,16,14,19,15.30
2009,10,16,14,20,15.30
2009,10,16,14,21,15.30
2009,10,16,14,22,15.30
2009,10,16,14,23,15.40
2009,10,16,14,24,15.40
2009,10,16,14,25,15.50
2009,10,16,14,26,15.50
2009,10,16,14,27,15.50
2009,10,16,14,28,15.50
2009,10,16,14,29,15.60
2009,10,16,14,30,15.60
2009,10,16,14,31,15.60
2009,10,16,14,32,15.60
2009,10,16,14,33,15.60
2009,10,16,14,34,15.70
2009,10,16,14,35,15.70
2009,10,16,14,36,15.70
2009,10,16,14,37,15.70
2009,10,16,14,38,15.70
2009,10,16,14,39,15.70
2009,10,16,14,40,15.70
2009,10,16,14,41,15.70
2009,10,16,14,42,15.70
2009,10,16,14,43,15.70
2009,10,16,14,44,15.70
2009,10,16,14,45,15.70
2009,10,16,14,46,15.80
2009,10,16,14,47,15.80
2009,10,16,14,48,15.80
2009,10,16,14,49,15.80
2009,10,16,14,50,15.80
2009,10,16,14,51,15.80
2009,10,16,14,52,15.80
2009,10,16,14,53,15.80
2009,10,16,14,54,15.80
2009,10,16,14,55,15.80
2009,10,16,14,56,15.80
2009,10,16,14,57,15.80
2009,10,16,14,58,15.70
2009,10,16,14,59,15.70
2009,10,16,15,00,15.70
2009,10,16,15,01,15.70
2009,10,16,15,02,15.70
2009,10,16,15,03,15.70
2009,10,16,15,04,15.70
2009,10,16,15,05,15.70
2009,10,16,15,06,15.70
2009,10,16,15,07,15.70
2009,10,16,15,08,15.70
2009,10,16,15,09,15.70
2009,10,16,15,10,15.70
